Date,TemperatureHighF,TemperatureAvgF,TemperatureLowF,DewpointHighF,DewpointAvgF,DewpointLowF,HumidityHigh,HumidityAvg,HumidityLow,PressureMaxIn,PressureMinIn,WindSpeedMaxMPH,WindSpeedAvgMPH,GustSpeedMaxMPH,PrecipitationSumIn
2013-1-1,27,10,1,-100,-100,-100,0,0,100,0.00,40.00,0,-999,0,0.00
2013-1-2,15,5,-3,-100,-100,-100,0,0,100,0.00,40.00,0,-999,0,0.00
2013-1-3,32,5,-4,-100,-100,-100,0,0,100,0.00,40.00,0,-999,0,0.01
2013-1-4,33,11,-1,-100,-100,-100,0,0,100,0.00,40.00,0,-999,0,0.00
2013-1-5,29,13,2,-100,-100,-100,0,0,100,0.00,40.00,0,-999,0,0.01
2013-1-6,31,20,8,-100,-100,-100,0,0,100,0.00,40.00,0,-999,0,0.01
2013-1-7,24,18,6,-100,-100,-100,0,0,100,0.00,40.00,0,-999,0,0.02
2013-1-8,33,29,24,-100,-100,-100,0,0,100,0.00,40.00,0,-999,0,0.01
2013-1-9,35,34,32,-100,-100,-100,0,0,100,0.00,40.00,0,-999,0,0.03
2013-1-10,32,24,19,-100,-100,-100,0,0,100,0.00,40.00,0,-999,0,0.01
2013-1-11,21,14,5,-100,-100,-100,0,0,100,0.00,40.00,0,-999,0,0.00
2013-1-12,17,-2,-17,-100,-100,-100,0,0,100,0.00,40.00,0,-999,0,0.00
2013-1-13,19,-2,-14,-100,-100,-100,0,0,100,0.00,40.00,0,-999,0,0.00
2013-1-14,14,8,-15,-100,-100,-100,0,0,100,0.00,40.00,0,-999,0,0.02
2013-1-15,28,16,5,-100,-100,-100,0,0,100,0.00,40.00,0,-999,0,0.01
2013-1-16,36,9,-3,-100,-100,-100,0,0,100,0.00,40.00,0,-999,0,0.00
2013-1-17,30,5,-5,-100,-100,-100,0,0,100,0.00,40.00,0,-999,0,0.00
2013-1-18,35,9,-3,-100,-100,-100,0,0,100,0.00,40.00,0,-999,0,0.00
2013-1-19,39,10,-1,-100,-100,-100,0,0,100,0.00,40.00,0,-999,0,0.00
2013-1-20,39,13,1,-100,-100,-100,0,0,100,0.00,40.00,0,-999,0,0.01
2013-1-21,42,14,3,-100,-100,-100,0,0,100,0.00,40.00,0,-999,0,0.01
2013-1-22,42,19,1,-100,-100,-100,0,0,100,0.00,40.00,0,-999,0,0.01
2013-1-23,33,22,9,-100,-100,-100,0,0,100,0.00,40.00,0,-999,0,0.01
2013-1-24,37,34,31,-100,-100,-100,0,0,100,0.00,40.00,0,-999,0,0.02
2013-1-25,35,34,34,-100,-100,-100,0,0,100,0.00,40.00,0,-999,0,0.02
2013-1-26,35,33,29,-100,-100,-100,0,0,100,0.00,40.00,0,-999,0,0.02
2013-1-27,32,23,15,-100,-100,-100,0,0,100,0.00,40.00,0,-999,0,0.01
2013-1-28,25,20,14,-100,-100,-100,0,0,100,0.00,40.00,0,-999,0,0.00
2013-1-29,31,26,23,-100,-100,-100,0,0,100,0.00,40.00,0,-999,0,0.01
2013-1-30,34,30,27,-100,-100,-100,0,0,100,0.00,40.00,0,-999,0,0.03
2013-1-31,37,33,28,-100,-100,-100,0,0,100,0.00,40.00,0,-999,0,0.01
2013-2-1,46,32,20,-100,-100,-100,0,0,100,0.00,40.00,0,-999,0,0.01
2013-2-2,49,22,12,-100,-100,-100,0,0,100,0.00,40.00,0,-999,0,0.00
2013-2-3,42,24,14,-100,-100,-100,0,0,100,0.00,40.00,0,-999,0,0.01
2013-2-4,45,31,25,-100,-100,-100,0,0,100,0.00,40.00,0,-999,0,0.01
2013-2-5,42,33,27,-100,-100,-100,0,0,100,0.00,40.00,0,-999,0,0.01
2013-2-6,40,25,16,-100,-100,-100,0,0,100,0.00,40.00,0,-999,0,0.00
2013-2-7,38,26,19,-100,-100,-100,0,0,100,0.00,40.00,0,-999,0,0.00
2013-2-8,39,22,11,-100,-100,-100,0,0,100,0.00,40.00,0,-999,0,0.00
2013-2-9,33,24,15,-100,-100,-100,0,0,100,0.00,40.00,0,-999,0,0.00
2013-2-10,35,22,10,-100,-100,-100,0,0,100,0.00,40.00,0,-999,0,0.00
2013-2-11,42,16,1,-100,-100,-100,0,0,100,0.00,40.00,0,-999,0,0.00
2013-2-12,36,26,13,-100,-100,-100,0,0,100,0.00,40.00,0,-999,0,0.01
2013-2-13,40,32,28,-100,-100,-100,0,0,100,0.00,40.00,0,-999,0,0.01
2013-2-14,42,28,13,-100,-100,-100,0,0,100,0.00,40.00,0,-999,0,0.00
2013-2-15,46,28,15,-100,-100,-100,0,0,100,0.00,40.00,0,-999,0,0.01
2013-2-16,49,31,17,-100,-100,-100,0,0,100,0.00,40.00,0,-999,0,0.01
2013-2-17,35,24,10,-100,-100,-100,0,0,100,0.00,40.00,0,-999,0,0.01
2013-2-18,33,18,7,-100,-100,-100,0,0,100,0.00,40.00,0,-999,0,0.00
2013-2-19,31,23,12,-100,-100,-100,0,0,100,0.00,40.00,0,-999,0,0.01
2013-2-20,41,21,5,-100,-100,-100,0,0,100,0.00,40.00,0,-999,0,0.00
2013-2-21,32,14,-6,-100,-100,-100,0,0,100,0.00,40.00,0,-999,0,0.01
2013-2-22,30,26,21,-100,-100,-100,0,0,100,0.00,40.00,0,-999,0,0.02
2013-2-23,33,24,10,-100,-100,-100,0,0,100,0.00,40.00,0,-999,0,0.02
2013-2-24,37,22,5,-100,-100,-100,0,0,100,0.00,40.00,0,-999,0,0.01
2013-2-25,29,22,14,-100,-100,-100,0,0,100,0.00,40.00,0,-999,0,0.01
2013-2-26,36,14,-3,-100,-100,-100,0,0,100,0.00,40.00,0,-999,0,0.01
2013-2-27,38,18,4,-100,-100,-100,0,0,100,0.00,40.00,0,-999,0,0.01
2013-2-28,34,28,17,-100,-100,-100,0,0,100,0.00,40.00,0,-999,0,0.02
2013-3-1,43,35,30,-100,-100,-100,0,0,100,0.00,40.00,0,-999,0,0.01
2013-3-2,45,34,26,-100,-100,-100,0,0,100,0.00,40.00,0,-999,0,0.00
2013-3-3,39,32,14,-100,-100,-100,0,0,100,0.00,40.00,0,-999,0,0.00
2013-3-4,39,19,2,-100,-100,-100,0,0,100,0.00,40.00,0,-999,0,0.00
2013-3-5,40,24,6,-100,-100,-100,0,0,100,0.00,40.00,0,-999,0,0.01
2013-3-6,38,32,29,-100,-100,-100,0,0,100,0.00,40.00,0,-999,0,0.02
2013-3-7,42,28,14,-100,-100,-100,0,0,100,0.00,40.00,0,-999,0,0.01
2013-3-8,47,24,7,-100,-100,-100,0,0,100,0.00,40.00,0,-999,0,0.00
2013-3-9,47,28,15,-100,-100,-100,0,0,100,0.00,40.00,0,-999,0,0.01
2013-3-10,44,29,11,-100,-100,-100,0,0,100,0.00,40.00,0,-999,0,0.00
2013-3-11,45,37,33,-100,-100,-100,0,0,100,0.00,40.00,0,-999,0,0.01
2013-3-12,42,36,33,-100,-100,-100,0,0,100,0.00,40.00,0,-999,0,0.00
2013-3-13,51,39,31,-100,-100,-100,0,0,100,0.00,40.00,0,-999,0,0.00
2013-3-14,54,38,28,-100,-100,-100,0,0,100,0.00,40.00,0,-999,0,0.00
2013-3-15,51,39,31,-100,-100,-100,0,0,100,0.00,40.00,0,-999,0,0.00
2013-3-16,47,34,22,-100,-100,-100,0,0,100,0.00,40.00,0,-999,0,0.00
2013-3-17,35,28,18,-100,-100,-100,0,0,100,0.00,40.00,0,-999,0,0.00
2013-3-18,38,25,11,-100,-100,-100,0,0,100,0.00,40.00,0,-999,0,0.00
2013-3-19,44,29,5,-100,-100,-100,0,0,100,0.00,40.00,0,-999,0,0.01
2013-3-20,42,36,33,-100,-100,-100,0,0,100,0.00,40.00,0,-999,0,0.02
2013-3-21,32,27,23,-100,-100,-100,0,0,100,0.00,40.00,0,-999,0,0.01
2013-3-22,30,23,13,-100,-100,-100,0,0,100,0.00,40.00,0,-999,0,0.00
2013-3-23,36,19,2,-100,-100,-100,0,0,100,0.00,40.00,0,-999,0,0.01
2013-3-24,37,20,3,-100,-100,-100,0,0,100,0.00,40.00,0,-999,0,0.00
2013-3-25,41,28,10,-100,-100,-100,0,0,100,0.00,40.00,0,-999,0,0.01
2013-3-26,53,35,25,-100,-100,-100,0,0,100,0.00,40.00,0,-999,0,0.01
2013-3-27,48,36,25,-100,-100,-100,0,0,100,0.00,40.00,0,-999,0,0.00
2013-3-28,53,39,31,-100,-100,-100,0,0,100,0.00,40.00,0,-999,0,0.01
2013-3-29,50,38,31,-100,-100,-100,0,0,100,0.00,40.00,0,-999,0,0.01
2013-3-30,58,36,25,-100,-100,-100,0,0,100,0.00,40.00,0,-999,0,0.00
2013-3-31,61,36,23,-100,-100,-100,0,0,100,0.00,40.00,0,-999,0,0.00
2013-4-1,60,40,24,-100,-100,-100,0,0,100,0.00,40.00,0,-999,0,0.00
2013-4-2,61,40,28,-100,-100,-100,0,0,100,0.00,40.00,0,-999,0,0.00
2013-4-3,60,39,29,-100,-100,-100,0,0,100,0.00,40.00,0,-999,0,0.00
2013-4-4,53,39,32,-100,-100,-100,0,0,100,0.00,40.00,0,-999,0,0.00
2013-4-5,45,39,34,-100,-100,-100,0,0,100,0.00,40.00,0,-999,0,0.01
2013-4-6,43,37,34,-100,-100,-100,0,0,100,0.00,40.00,0,-999,0,0.02
2013-4-7,42,35,33,-100,-100,-100,0,0,100,0.00,40.00,0,-999,0,0.04
2013-4-8,42,33,28,-100,-100,-100,0,0,100,0.00,40.00,0,-999,0,0.01
2013-4-9,51,37,26,-100,-100,-100,0,0,100,0.00,40.00,0,-999,0,0.00
2013-4-10,43,35,29,-100,-100,-100,0,0,100,0.00,40.00,0,-999,0,0.00
2013-4-11,50,38,26,-100,-100,-100,0,0,100,0.00,40.00,0,-999,0,0.01
2013-4-12,51,36,24,-100,-100,-100,0,0,100,0.00,40.00,0,-999,0,0.00
2013-4-13,40,36,30,-100,-100,-100,0,0,100,0.00,40.00,0,-999,0,0.01
2013-4-14,41,30,25,-100,-100,-100,0,0,100,0.00,40.00,0,-999,0,0.00
2013-4-15,37,29,23,-100,-100,-100,0,0,100,0.00,40.00,0,-999,0,0.01
2013-4-16,43,31,21,-100,-100,-100,0,0,100,0.00,40.00,0,-999,0,0.01
2013-4-17,43,31,18,-100,-100,-100,0,0,100,0.00,40.00,0,-999,0,0.00
2013-4-18,49,32,18,-100,-100,-100,0,0,100,0.00,40.00,0,-999,0,0.00
2013-4-19,40,36,33,-100,-100,-100,0,0,100,0.00,40.00,0,-999,0,0.03
2013-4-20,48,38,31,-100,-100,-100,0,0,100,0.00,40.00,0,-999,0,0.02
2013-4-21,47,37,29,-100,-100,-100,0,0,100,0.00,40.00,0,-999,0,0.00
2013-4-22,45,35,28,-100,-100,-100,0,0,100,0.00,40.00,0,-999,0,0.00
2013-4-23,47,31,21,-100,-100,-100,0,0,100,0.00,40.00,0,-999,0,0.00
2013-4-24,55,46,31,-100,-100,-100,0,0,100,0.00,40.00,0,-999,0,0.00
2013-4-25,60,42,28,-100,-100,-100,0,0,100,0.00,40.00,0,-999,0,0.00
2013-4-26,63,47,30,-100,-100,-100,0,0,100,0.00,40.00,0,-999,0,0.00
2013-4-27,63,44,32,-100,-100,-100,0,0,100,0.00,40.00,0,-999,0,0.00
2013-4-28,55,44,36,-100,-100,-100,0,0,100,0.00,40.00,0,-999,0,0.01
2013-4-29,48,42,31,-100,-100,-100,0,0,100,0.00,40.00,0,-999,0,0.00
2013-4-30,39,32,24,-100,-100,-100,0,0,100,0.00,40.00,0,-999,0,0.00
2013-5-1,51,35,21,-100,-100,-100,0,0,100,0.00,40.00,0,-999,0,0.01
2013-5-2,59,41,26,-100,-100,-100,0,0,100,0.00,40.00,0,-999,0,0.01
2013-5-3,58,46,31,-100,-100,-100,0,0,100,0.00,40.00,0,-999,0,0.01
2013-5-4,60,46,36,-100,-100,-100,0,0,100,0.00,40.00,0,-999,0,0.00
2013-5-5,65,46,32,-100,-100,-100,0,0,100,0.00,40.00,0,-999,0,0.00
2013-5-6,70,48,32,-100,-100,-100,0,0,100,0.00,40.00,0,-999,0,0.00
2013-5-7,72,52,34,-100,-100,-100,0,0,100,0.00,40.00,0,-999,0,0.00
2013-5-8,72,55,38,-100,-100,-100,0,0,100,0.00,40.00,0,-999,0,0.00
2013-5-9,73,53,36,-100,-100,-100,0,0,100,0.00,40.00,0,-999,0,0.00
2013-5-10,75,52,37,-100,-100,-100,0,0,100,0.00,40.00,0,-999,0,0.00
2013-5-11,75,54,39,-100,-100,-100,0,0,100,0.00,40.00,0,-999,0,0.00
2013-5-12,78,57,42,-100,-100,-100,0,0,100,0.00,40.00,0,-999,0,0.00
2013-5-13,74,55,40,-100,-100,-100,0,0,100,0.00,40.00,0,-999,0,0.00
2013-5-14,64,49,35,-100,-100,-100,0,0,100,0.00,40.00,0,-999,0,0.00
2013-5-15,62,49,36,-100,-100,-100,0,0,100,0.00,40.00,0,-999,0,0.00
2013-5-16,56,48,39,-100,-100,-100,0,0,100,0.00,40.00,0,-999,0,0.00
2013-5-17,51,45,42,-100,-100,-100,0,0,100,0.00,40.00,0,-999,0,0.02
2013-5-18,54,45,39,-100,-100,-100,0,0,100,0.00,40.00,0,-999,0,0.01
2013-5-19,54,44,40,-100,-100,-100,0,0,100,0.00,40.00,0,-999,0,0.01
2013-5-20,65,48,34,-100,-100,-100,0,0,100,0.00,40.00,0,-999,0,0.00
2013-5-21,62,50,35,-100,-100,-100,0,0,100,0.00,40.00,0,-999,0,0.00
2013-5-22,42,38,30,-100,-100,-100,0,0,100,0.00,40.00,0,-999,0,0.01
2013-5-23,53,38,23,-100,-100,-100,0,0,100,0.00,40.00,0,-999,0,0.01
2013-5-24,50,39,31,-100,-100,-100,0,0,100,0.00,40.00,0,-999,0,0.00
2013-5-25,55,44,36,-100,-100,-100,0,0,100,0.00,40.00,0,-999,0,0.01
2013-5-26,55,44,35,-100,-100,-100,0,0,100,0.00,40.00,0,-999,0,0.00
2013-5-27,51,44,40,-100,-100,-100,0,0,100,0.00,40.00,0,-999,0,0.02
2013-5-28,50,44,42,-100,-100,-100,0,0,100,0.00,40.00,0,-999,0,0.03
2013-5-29,47,41,35,-100,-100,-100,0,0,100,0.00,40.00,0,-999,0,0.01
2013-5-30,55,42,33,-100,-100,-100,0,0,100,0.00,40.00,0,-999,0,0.01
2013-5-31,61,44,30,-100,-100,-100,0,0,100,0.00,40.00,0,-999,0,0.00
2013-6-1,67,49,31,-100,-100,-100,0,0,100,0.00,40.00,0,-999,0,0.00
2013-6-2,61,49,39,-100,-100,-100,0,0,100,0.00,40.00,0,-999,0,0.00
2013-6-3,62,46,32,-100,-100,-100,0,0,100,0.00,40.00,0,-999,0,0.00
2013-6-4,72,53,35,-100,-100,-100,0,0,100,0.00,40.00,0,-999,0,0.00
2013-6-5,74,54,37,-100,-100,-100,0,0,100,0.00,40.00,0,-999,0,0.00
2013-6-6,78,58,42,-100,-100,-100,0,0,100,0.00,40.00,0,-999,0,0.00
2013-6-7,78,56,44,-100,-100,-100,0,0,100,0.00,40.00,0,-999,0,0.00
2013-6-8,75,56,38,-100,-100,-100,0,0,100,0.00,40.00,0,-999,0,0.00
2013-6-9,77,57,40,-100,-100,-100,0,0,100,0.00,40.00,0,-999,0,0.00
2013-6-10,78,58,39,-100,-100,-100,0,0,100,0.00,40.00,0,-999,0,0.00
2013-6-11,72,58,47,-100,-100,-100,0,0,100,0.00,40.00,0,-999,0,0.00
2013-6-12,68,55,40,-100,-100,-100,0,0,100,0.00,40.00,0,-999,0,0.00
2013-6-13,60,50,40,-100,-100,-100,0,0,100,0.00,40.00,0,-999,0,0.01
2013-6-14,59,45,38,-100,-100,-100,0,0,100,0.00,40.00,0,-999,0,0.01
2013-6-15,71,51,30,-100,-100,-100,0,0,100,0.00,40.00,0,-999,0,0.01
2013-6-16,80,68,41,-100,-100,-100,0,0,100,0.00,40.00,0,-999,0,0.00
2013-6-17,79,70,55,-100,-100,-100,0,0,100,0.00,40.00,0,-999,0,1.15
2013-6-18,73,62,47,-100,-100,-100,0,0,100,0.00,40.00,0,-999,0,0.00
2013-6-19,50,44,39,-100,-100,-100,0,0,100,0.00,40.00,0,-999,0,0.02
2013-6-20,48,40,37,-100,-100,-100,0,0,100,0.00,40.00,0,-999,0,0.02
2013-6-22,63,53,39,-100,-100,-100,0,0,100,0.00,40.00,0,-999,0,0.01
2013-6-23,68,52,35,-100,-100,-100,0,0,100,0.00,40.00,0,-999,0,0.00
2013-6-24,57,52,49,-100,-100,-100,0,0,100,0.00,40.00,0,-999,0,0.01
2013-6-25,53,50,48,-100,-100,-100,0,0,100,0.00,40.00,0,-999,0,0.02
2013-6-26,64,54,49,-100,-100,-100,0,0,100,0.00,40.00,0,-999,0,0.02
2013-6-27,81,59,44,-100,-100,-100,0,0,100,0.00,40.00,0,-999,0,0.01
2013-6-29,87,75,57,-100,-100,-100,0,0,100,0.00,40.00,0,-999,0,0.00
2013-6-30,89,79,54,-100,-100,-100,0,0,100,0.00,40.00,0,-999,0,0.00
2013-7-1,94,87,77,-100,-100,-100,0,0,100,0.00,40.00,0,-999,0,0.00
2013-7-2,92,82,55,-100,-100,-100,0,0,100,0.00,40.00,0,-999,0,0.00
2013-7-3,85,72,58,-100,-100,-100,0,0,100,0.00,40.00,0,-999,0,0.00
2013-7-4,81,70,57,-100,-100,-100,0,0,100,0.00,40.00,0,-999,0,0.00
2013-7-5,76,66,51,-100,-100,-100,0,0,100,0.00,40.00,0,-999,0,0.00
2013-7-6,81,64,46,-100,-100,-100,0,0,100,0.00,40.00,0,-999,0,0.00
2013-7-7,82,76,59,-100,-100,-100,0,0,100,0.00,40.00,0,-999,0,0.00
2013-7-8,79,73,69,-100,-100,-100,0,0,100,0.00,40.00,0,-999,0,0.00
2013-7-9,84,80,73,-100,-100,-100,0,0,100,0.00,40.00,0,-999,0,0.00
2013-7-10,89,83,74,-100,-100,-100,0,0,100,0.00,40.00,0,-999,0,0.00
2013-7-11,70,60,49,-100,-100,-100,0,0,100,0.00,40.00,0,-999,0,0.01
2013-7-12,77,58,42,-100,-100,-100,0,0,100,0.00,40.00,0,-999,0,0.00
2013-7-13,76,69,56,-100,-100,-100,0,0,100,0.00,40.00,0,-999,0,0.00
2013-7-14,82,77,64,-100,-100,-100,0,0,100,0.00,40.00,0,-999,0,0.00
2013-7-15,88,83,79,-100,-100,-100,0,0,100,0.00,40.00,0,-999,0,0.00
2013-7-16,89,76,66,-100,-100,-100,0,0,100,0.00,40.00,0,-999,0,0.00
2013-7-26,85,80,75,-100,-100,-100,0,0,100,0.00,40.00,0,-999,0,0.00
2013-7-27,84,78,67,-100,-100,-100,0,0,100,0.00,40.00,0,-999,0,0.00
2013-7-28,79,72,63,-100,-100,-100,0,0,100,0.00,40.00,0,-999,0,0.00
2013-7-29,75,71,62,-100,-100,-100,0,0,100,0.00,40.00,0,-999,0,0.00
2013-7-30,80,71,54,-100,-100,-100,0,0,100,0.00,40.00,0,-999,0,0.00
2013-7-31,84,72,60,-100,-100,-100,0,0,100,0.00,40.00,0,-999,0,0.00
2013-8-1,74,59,50,-100,-100,-100,0,0,100,0.00,40.00,0,-999,0,0.01
2013-8-27,74,69,64,-100,-100,-100,0,0,100,0.00,40.00,0,-999,0,0.00
2013-8-28,73,67,59,-100,-100,-100,0,0,100,0.00,40.00,0,-999,0,0.02
2013-8-29,82,67,49,-100,-100,-100,0,0,100,0.00,40.00,0,-999,0,0.00
2013-8-30,81,72,62,-100,-100,-100,0,0,100,0.00,40.00,0,-999,0,0.00
2013-8-31,83,76,64,-100,-100,-100,0,0,100,0.00,40.00,0,-999,0,0.00
2013-9-1,81,73,46,-100,-100,-100,0,0,100,0.00,40.00,0,-999,0,0.00
2013-9-2,69,61,51,-100,-100,-100,0,0,100,0.00,40.00,0,-999,0,0.00
2013-9-3,72,58,54,-100,-100,-100,0,0,100,0.00,40.00,0,-999,0,0.00
2013-9-4,80,64,50,-100,-100,-100,0,0,100,0.00,40.00,0,-999,0,0.00
2013-9-5,72,58,53,-100,-100,-100,0,0,100,0.00,40.00,0,-999,0,0.03
2013-9-6,71,55,45,-100,-100,-100,0,0,100,0.00,40.00,0,-999,0,0.02
2013-9-7,73,56,37,-100,-100,-100,0,0,100,0.00,40.00,0,-999,0,0.00
2013-9-8,72,55,40,-100,-100,-100,0,0,100,0.00,40.00,0,-999,0,0.00
2013-9-9,75,61,39,-100,-100,-100,0,0,100,0.00,40.00,0,-999,0,0.00
2013-9-10,78,67,39,-100,-100,-100,0,0,100,0.00,40.00,0,-999,0,0.00
2013-9-11,84,72,40,-100,-100,-100,0,0,100,0.00,40.00,0,-999,0,0.00
2013-9-12,73,68,57,-100,-100,-100,0,0,100,0.00,40.00,0,-999,0,0.00
2013-9-13,70,58,51,-100,-100,-100,0,0,100,0.00,40.00,0,-999,0,0.01
2013-9-14,74,59,50,-100,-100,-100,0,0,100,0.00,40.00,0,-999,0,0.01
2013-9-15,78,65,48,-100,-100,-100,0,0,100,0.00,40.00,0,-999,0,0.00
2013-9-16,71,55,47,-100,-100,-100,0,0,100,0.00,40.00,0,-999,0,0.01
2013-9-17,61,51,42,-100,-100,-100,0,0,100,0.00,40.00,0,-999,0,0.00
2013-9-18,45,41,35,-100,-100,-100,0,0,100,0.00,40.00,0,-999,0,0.01
2013-9-19,63,43,30,-100,-100,-100,0,0,100,0.00,40.00,0,-999,0,0.01
2013-9-20,75,54,32,-100,-100,-100,0,0,100,0.00,40.00,0,-999,0,0.00
2013-9-21,63,54,41,-100,-100,-100,0,0,100,0.00,40.00,0,-999,0,0.00
2013-9-22,53,47,43,-100,-100,-100,0,0,100,0.00,40.00,0,-999,0,0.00
2013-9-23,53,45,36,-100,-100,-100,0,0,100,0.00,40.00,0,-999,0,0.00
2013-9-24,44,42,40,-100,-100,-100,0,0,100,0.00,40.00,0,-999,0,0.03
2013-9-25,42,39,37,-100,-100,-100,0,0,100,0.00,40.00,0,-999,0,0.01
2013-9-26,49,39,31,-100,-100,-100,0,0,100,0.00,40.00,0,-999,0,0.00
2013-9-27,47,37,31,-100,-100,-100,0,0,100,0.00,40.00,0,-999,0,0.00
2013-9-28,46,42,38,-100,-100,-100,0,0,100,0.00,40.00,0,-999,0,0.03
2013-9-30,48,43,37,-100,-100,-100,0,0,100,0.00,40.00,0,-999,0,0.04
2013-10-1,47,41,38,-100,-100,-100,0,0,100,0.00,40.00,0,-999,0,0.00
2013-10-2,48,38,26,-100,-100,-100,0,0,100,0.00,40.00,0,-999,0,0.00
2013-10-3,43,37,33,-100,-100,-100,0,0,100,0.00,40.00,0,-999,0,0.01
2013-10-4,54,39,29,-100,-100,-100,0,0,100,0.00,40.00,0,-999,0,0.00
2013-10-5,57,40,26,-100,-100,-100,0,0,100,0.00,40.00,0,-999,0,0.00
2013-10-6,68,41,28,-100,-100,-100,0,0,100,0.00,40.00,0,-999,0,0.00
2013-10-7,58,42,30,-100,-100,-100,0,0,100,0.00,40.00,0,-999,0,0.00
2013-10-8,43,35,29,-100,-100,-100,0,0,100,0.00,40.00,0,-999,0,0.00
2013-10-9,49,36,31,-100,-100,-100,0,0,100,0.00,40.00,0,-999,0,0.01
2013-10-10,52,38,29,-100,-100,-100,0,0,100,0.00,40.00,0,-999,0,0.00
2013-10-11,52,38,28,-100,-100,-100,0,0,100,0.00,40.00,0,-999,0,0.00
2013-10-12,47,36,31,-100,-100,-100,0,0,100,0.00,40.00,0,-999,0,0.00
2013-10-13,48,38,31,-100,-100,-100,0,0,100,0.00,40.00,0,-999,0,0.00
2013-10-21,45,40,35,-100,-100,-100,0,0,100,0.00,40.00,0,-999,0,0.00
2013-10-22,60,44,30,-100,-100,-100,0,0,100,0.00,40.00,0,-999,0,0.00
2013-10-23,29,29,29,-100,-100,-100,0,0,100,0.00,40.00,0,-999,0,0.00
2013-10-24,60,48,33,-100,-100,-100,0,0,100,0.00,40.00,0,-999,0,0.00
2013-10-25,29,29,28,-100,-100,-100,0,0,100,0.00,40.00,0,-999,0,0.00
2013-10-26,59,38,27,-100,-100,-100,0,0,100,0.00,40.00,0,-999,0,0.00
2013-10-27,50,38,30,-100,-100,-100,0,0,100,0.00,40.00,0,-999,0,0.00
2013-11-2,39,38,34,-100,-100,-100,0,0,100,0.00,40.00,0,-999,0,0.01
2013-11-3,36,29,27,-100,-100,-100,0,0,100,0.00,40.00,0,-999,0,0.00
2013-11-4,30,26,20,-100,-100,-100,0,0,100,0.00,40.00,0,-999,0,0.00
2013-11-5,30,23,12,-100,-100,-100,0,0,100,0.00,40.00,0,-999,0,0.01
2013-11-6,34,33,31,-100,-100,-100,0,0,100,0.00,40.00,0,-999,0,0.01
2013-11-7,36,35,34,-100,-100,-100,0,0,100,0.00,40.00,0,-999,0,0.00
2013-11-8,36,33,32,-100,-100,-100,0,0,100,0.00,40.00,0,-999,0,0.01
2013-11-12,47,36,31,-100,-100,-100,0,0,100,0.00,40.00,0,-999,0,0.01
2013-11-13,46,40,36,-100,-100,-100,0,0,100,0.00,40.00,0,-999,0,0.01
2013-11-14,41,33,30,-100,-100,-100,0,0,100,0.00,40.00,0,-999,0,0.00
2013-11-15,35,34,32,-100,-100,-100,0,0,100,0.00,40.00,0,-999,0,0.00
2013-11-16,30,28,23,-100,-100,-100,0,0,100,0.00,40.00,0,-999,0,0.01
2013-11-17,36,29,23,-100,-100,-100,0,0,100,0.00,40.00,0,-999,0,0.00
2013-11-18,38,29,22,-100,-100,-100,0,0,100,0.00,40.00,0,-999,0,0.00
2013-11-19,35,34,34,-100,-100,-100,0,0,100,0.00,40.00,0,-999,0,0.04
2013-11-20,34,28,16,-100,-100,-100,0,0,100,0.00,40.00,0,-999,0,0.01
2013-11-21,35,26,15,-100,-100,-100,0,0,100,0.00,40.00,0,-999,0,0.00
2013-11-22,32,18,8,-100,-100,-100,0,0,100,0.00,40.00,0,-999,0,0.00
2013-11-23,44,26,12,-100,-100,-100,0,0,100,0.00,40.00,0,-999,0,0.00
2013-11-24,40,26,13,-100,-100,-100,0,0,100,0.00,40.00,0,-999,0,0.00
2013-11-25,26,25,24,-100,-100,-100,0,0,100,0.00,40.00,0,-999,0,0.00
2013-11-26,31,25,20,-100,-100,-100,0,0,100,0.00,40.00,0,-999,0,0.00
2013-11-27,43,28,23,-100,-100,-100,0,0,100,0.00,40.00,0,-999,0,0.00
2013-11-28,44,27,20,-100,-100,-100,0,0,100,0.00,40.00,0,-999,0,0.00
2013-11-29,43,31,19,-100,-100,-100,0,0,100,0.00,40.00,0,-999,0,0.00
2013-11-30,35,33,30,-100,-100,-100,0,0,100,0.00,40.00,0,-999,0,0.01
2013-12-1,34,34,34,-100,-100,-100,0,0,100,0.00,40.00,0,-999,0,0.01
2013-12-2,35,29,22,-100,-100,-100,0,0,100,0.00,40.00,0,-999,0,0.01
2013-12-3,23,17,12,-100,-100,-100,0,0,100,0.00,40.00,0,-999,0,0.00
2013-12-4,17,7,-3,-100,-100,-100,0,0,100,0.00,40.00,0,-999,0,0.00
2013-12-5,14,7,-5,-100,-100,-100,0,0,100,0.00,40.00,0,-999,0,0.00
2013-12-6,15,8,4,-100,-100,-100,0,0,100,0.00,40.00,0,-999,0,0.00
2013-12-7,9,6,-3,-100,-100,-100,0,0,100,0.00,40.00,0,-999,0,0.00
2013-12-8,7,-2,-10,-100,-100,-100,0,0,100,0.00,40.00,0,-999,0,0.00
2013-12-9,14,9,-8,-100,-100,-100,0,0,100,0.00,40.00,0,-999,0,0.02
2013-12-10,22,14,4,-100,-100,-100,0,0,100,0.00,40.00,0,-999,0,0.00
2013-12-11,24,18,11,-100,-100,-100,0,0,100,0.00,40.00,0,-999,0,0.00
2013-12-12,27,15,8,-100,-100,-100,0,0,100,0.00,40.00,0,-999,0,0.00
2013-12-13,32,29,23,-100,-100,-100,0,0,100,0.00,40.00,0,-999,0,0.01
2013-12-14,33,30,28,-100,-100,-100,0,0,100,0.00,40.00,0,-999,0,0.00
2013-12-15,31,27,23,-100,-100,-100,0,0,100,0.00,40.00,0,-999,0,0.00
2013-12-16,35,25,15,-100,-100,-100,0,0,100,0.00,40.00,0,-999,0,0.00
2013-12-17,39,21,15,-100,-100,-100,0,0,100,0.00,40.00,0,-999,0,0.00
2013-12-18,32,24,19,-100,-100,-100,0,0,100,0.00,40.00,0,-999,0,0.00
2013-12-19,31,21,7,-100,-100,-100,0,0,100,0.00,40.00,0,-999,0,0.00
2013-12-20,20,9,2,-100,-100,-100,0,0,100,0.00,40.00,0,-999,0,0.00
2013-12-21,29,22,16,-100,-100,-100,0,0,100,0.00,40.00,0,-999,0,0.02
2013-12-22,32,30,28,-100,-100,-100,0,0,100,0.00,40.00,0,-999,0,0.01
2013-12-23,34,32,31,-100,-100,-100,0,0,100,0.00,40.00,0,-999,0,0.02
2013-12-24,30,20,13,-100,-100,-100,0,0,100,0.00,40.00,0,-999,0,0.00
2013-12-25,30,15,6,-100,-100,-100,0,0,100,0.00,40.00,0,-999,0,0.01
2013-12-26,34,18,8,-100,-100,-100,0,0,100,0.00,40.00,0,-999,0,0.00
2013-12-27,28,17,9,-100,-100,-100,0,0,100,0.00,40.00,0,-999,0,0.00
2013-12-28,27,27,27,-100,-100,-100,0,0,100,0.00,40.00,0,-999,0,0.00
2013-12-29,28,18,6,-100,-100,-100,0,0,100,0.00,40.00,0,-999,0,0.00
2013-12-30,29,22,17,-100,-100,-100,0,0,100,0.00,40.00,0,-999,0,0.01
2013-12-31,31,29,25,-100,-100,-100,0,0,100,0.00,40.00,0,-999,0,0.01
2014-1-1,30,20,14,-100,-100,-100,0,0,100,0.00,40.00,0,-999,0,0.00
2014-1-2,35,24,19,-100,-100,-100,0,0,100,0.00,40.00,0,-999,0,0.01